Flag for India Weather past 2 weeks in Tiruchirappalli, Tamil Nadu, India

Now
86 °F

Scattered clouds.


Feels Like: 97 °F
Forecast: 79 / 100 °F
Wind: 2 mph from North

Location: Tiruchchirapalli

Current Time: Apr 22, 2015 at 10:06:59 AM

Latest Report: Apr 22, 2015 at 9:10 AM


Visibility: 3 mi

Pressure: 29.86 "Hg

Humidity: 75%

Dew point: 77 °F

Location of TiruchirappalliLocation

Historic Weather in Tiruchirappalli — Graph

°F

Tiruchirappalli temperature yesterday

Maximum temperature yesterday: 91 °F (at 10:40 AM)
Minimum temperature yesterday: 81 °F (at 5:40 AM)
Average temperature yesterday: 85 °F

Past Weeks' High & Low Weather Summary

 TemperatureHumidityPressure
High102 °F (Apr 7, 2:40 PM)100% (Apr 13, 2:40 AM)29.98 "Hg (Apr 13, 2:40 AM)
Low70 °F (Apr 18, 2:40 AM)29% (Apr 7, 2:40 PM)29.65 "Hg (Apr 7, 3:40 PM)
Average86 °F67%29.83 "Hg
* Reported Apr 7 7:40 AM — Apr 22 8:10 AM, Tiruchirappalli, Weather by CustomWeather, © 2015

Note: Actual official high and low records may vary slightly from our data, if they occured in-between our weather recording intervals... More about our weather records

Advertising

Tiruchirappalli weather history for previous 24 hours

 ConditionsComfort  
Time TempWeatherWind HumidityBarometerVisibility
8:10 AM
Wed, Apr 22
84 °FFog.3 mph79%29.86 "Hg2 mi
7:40 AM84 °FFog.2 mph79%29.86 "Hg2 mi
7:10 AM84 °FFog.2 mph79%29.83 "Hg2 mi
5:40 AM81 °FFog.2 mph89%29.80 "Hg3 mi
4:40 AM81 °FPassing clouds.2 mph84%29.80 "Hg4 mi
4:10 AM81 °FPassing clouds.2 mph84%29.80 "Hg4 mi
3:40 AM81 °FPassing clouds.2 mph89%29.80 "Hg4 mi
3:10 AM81 °FPassing clouds.3 mph89%29.80 "Hg4 mi
2:40 AM81 °FPassing clouds.3 mph89%29.80 "Hg4 mi
2:10 AM81 °FPassing clouds.3 mph79%29.80 "Hg4 mi
1:10 AM81 °FPassing clouds.3 mph84%29.83 "Hg4 mi
12:40 AM82 °FPassing clouds.5 mph79%29.86 "Hg4 mi
11:40 PM
Tue, Apr 21
82 °FPassing clouds.3 mph79%29.89 "Hg4 mi
11:10 PM82 °FPassing clouds.2 mph79%29.86 "Hg4 mi
10:40 PM82 °FPassing clouds.3 mph84%29.89 "Hg4 mi
10:10 PM84 °FPassing clouds.6 mph79%29.89 "Hg4 mi
9:40 PM84 °FPassing clouds.5 mph79%29.86 "Hg4 mi
9:10 PM84 °FPassing clouds.6 mph79%29.86 "Hg4 mi
8:40 PM84 °FPassing clouds.7 mph79%29.86 "Hg4 mi
8:10 PM84 °FPassing clouds.5 mph74%29.83 "Hg4 mi
7:40 PM84 °FPassing clouds.6 mph74%29.80 "Hg4 mi
7:10 PM86 °FPassing clouds.5 mph70%29.80 "Hg4 mi
6:40 PM86 °FScattered clouds.6 mph70%29.77 "Hg4 mi
6:10 PM86 °FScattered clouds.5 mph70%29.77 "Hg4 mi
5:40 PM88 °FScattered clouds.6 mph66%29.77 "Hg4 mi
5:10 PM88 °FScattered clouds.7 mph66%29.77 "Hg4 mi
4:40 PM88 °FScattered clouds.6 mph66%29.77 "Hg4 mi
4:10 PM88 °FScattered clouds.5 mph66%29.77 "Hg4 mi
3:40 PM88 °FScattered clouds.5 mph66%29.77 "Hg4 mi
3:10 PM90 °FScattered clouds.6 mph63%29.77 "Hg4 mi
2:40 PM90 °FScattered clouds.9 mph63%29.77 "Hg4 mi
2:10 PM91 °FScattered clouds.9 mph59%29.80 "Hg4 mi
1:40 PM91 °FScattered clouds.9 mph59%29.80 "Hg4 mi
1:10 PM91 °FScattered clouds.6 mph59%29.80 "Hg4 mi
12:40 PM91 °FScattered clouds.6 mph59%29.83 "Hg4 mi
12:10 PM91 °FScattered clouds.7 mph59%29.83 "Hg4 mi
11:40 AM90 °FScattered clouds.5 mph63%29.86 "Hg4 mi
11:10 AM91 °FScattered clouds.5 mph59%29.86 "Hg4 mi
10:40 AM91 °FScattered clouds.2 mph63%29.89 "Hg3 mi
Weather by CustomWeather, © 2015

See weather overviewHow to use our weather pages